FW8253 Weather Reports


Display with metric or nautical units.
time (UTC)temp
F
wind
direction
speed
MPH
gust
MPH
rain 1hr
in
rain 24hr
in
rain mn
in
humidity
%
barometer
mb
20260906090551 72 230 0.0 0.0 0.00 0.00 0.00 98 1012.0
20260906090046 72 229 0.0 0.0 0.00 0.00 0.00 98 1011.8
20260906085544 72 229 0.0 0.0 0.00 0.00 0.00 98 1011.9
20260906085044 72 218 0.0 0.0 0.00 0.00 0.00 98 1011.9
20260906084539 72 196 0.0 0.0 0.00 0.00 0.00 98 1012.0
20260906084037 72 196 0.0 0.0 0.00 0.00 0.00 98 1011.9
20260906083534 72 196 0.0 0.0 0.00 0.00 0.00 98 1012.0
20260906083033 73 196 0.0 0.0 0.00 0.00 0.00 98 1012.0
20260906082528 73 215 0.0 0.0 0.00 0.00 0.00 98 1012.0
20260906082024 73 215 0.0 0.0 0.00 0.00 0.00 98 1012.0
20260906081520 73 215 0.0 0.0 0.00 0.00 0.00 97 1011.8
20260906081015 73 215 0.0 0.0 0.00 0.00 0.00 97 1011.9
20260906080512 73 215 0.0 0.0 0.00 0.00 0.00 97 1011.9
20260906080008 73 215 0.0 0.0 0.00 0.00 0.00 97 1011.7
20260906075502 73 204 0.0 0.0 0.00 0.00 0.00 97 1011.6
20260906074956 73 206 0.0 0.0 0.00 0.00 0.00 97 1011.7
20260906074451 73 207 0.0 0.0 0.00 0.00 0.00 97 1011.6
20260906073949 73 222 0.0 0.0 0.00 0.00 0.00 97 1011.6
20260906073444 73 222 0.0 0.0 0.00 0.00 0.00 97 1011.8
20260906072941 73 222 0.0 0.0 0.00 0.00 0.00 97 1011.9
20260906072436 73 225 0.0 0.0 0.00 0.00 0.00 96 1011.9
20260906071932 73 225 0.0 0.0 0.00 0.00 0.00 96 1011.8
20260906071427 73 225 0.0 0.0 0.00 0.00 0.00 96 1011.7
20260906070923 74 197 0.0 0.0 0.00 0.00 0.00 96 1011.8
20260906070419 74 234 0.0 0.0 0.00 0.00 0.00 96 1011.8
20260906065915 74 232 0.0 0.0 0.00 0.00 0.00 96 1011.8
20260906065409 74 225 0.0 0.0 0.00 0.00 0.00 95 1012.1
20260906064905 74 237 0.0 0.0 0.00 0.00 0.00 95 1011.7
20260906064401 74 226 0.0 0.0 0.00 0.00 0.00 95 1011.9
20260906063900 74 225 0.0 0.0 0.00 0.00 0.00 95 1011.6
20260906063356 75 225 0.0 0.0 0.00 0.00 0.00 94 1011.8
20260906062851 75 225 0.0 0.0 0.00 0.00 0.00 94 1011.9
20260906062350 75 220 0.0 0.0 0.00 0.00 0.00 94 1012.0
20260906061845 75 230 0.0 0.0 0.00 0.00 0.00 94 1011.9
20260906061336 75 232 0.0 0.0 0.00 0.00 0.00 94 1012.1
20260906060830 75 233 0.0 0.0 0.00 0.00 0.00 94 1012.0
20260906060329 75 230 0.0 0.0 0.00 0.00 0.00 94 1012.2
20260906055824 75 224 0.0 0.0 0.00 0.00 0.00 94 1012.1
20260906055319 75 173 0.0 0.0 0.00 0.00 0.00 93 1012.2
20260906054815 75 173 0.0 0.0 0.00 0.00 0.00 93 1012.1
20260906054310 75 170 0.0 0.0 0.00 0.00 0.00 94 1012.3
20260906053806 75 176 0.0 0.0 0.00 0.00 0.00 94 1012.3
20260906053301 75 191 0.0 0.0 0.00 0.00 0.00 93 1012.2
20260906052756 75 190 0.0 0.0 0.00 0.00 0.00 93 1012.4
20260906052253 75 194 0.0 0.0 0.00 0.00 0.00 94 1012.7
20260906051750 74 219 0.0 0.0 0.00 0.00 0.00 94 1012.6
20260906051249 75 230 0.0 0.0 0.00 0.00 0.00 94 1012.5
20260906050744 75 230 0.0 0.0 0.00 0.00 0.00 94 1012.6
20260906050239 75 220 0.0 0.0 0.00 0.00 0.00 93 1012.9
20260906045738 75 221 0.0 0.0 0.00 0.00 0.00 93 1013.0
20260906045233 75 235 0.0 0.0 0.00 0.00 0.00 93 1012.9
20260906044729 75 235 0.0 0.0 0.00 0.00 0.00 93 1013.0
20260906044224 75 190 0.0 0.0 0.00 0.00 0.00 92 1012.7
20260906043720 75 226 0.0 0.0 0.00 0.00 0.00 92 1012.7
20260906043216 75 239 0.0 0.0 0.00 0.00 0.00 92 1012.7
20260906042715 76 226 0.0 0.0 0.00 0.00 0.00 91 1012.7
20260906042214 76 225 0.0 0.0 0.00 0.00 0.00 90 1012.9
20260906041710 76 225 0.0 0.0 0.00 0.00 0.00 90 1012.9
20260906041205 76 203 0.0 0.0 0.00 0.00 0.00 91 1012.8
20260906040701 76 236 0.0 0.0 0.00 0.00 0.00 91 1013.0
20260906040156 76 237 0.0 0.0 0.00 0.00 0.00 90 1013.0
20260906035651 77 235 0.0 0.0 0.00 0.00 0.00 90 1013.0
20260906035147 77 222 0.0 0.0 0.00 0.00 0.00 88 1012.9
20260906034641 77 225 0.0 0.0 0.00 0.00 0.00 88 1013.1
20260906034136 77 177 0.0 0.0 0.00 0.00 0.00 88 1013.0
20260906033632 77 215 0.0 0.0 0.00 0.00 0.00 88 1013.1
20260906033126 77 219 0.0 0.0 0.00 0.00 0.00 88 1013.0
20260906032623 77 192 0.0 0.0 0.00 0.00 0.00 88 1013.2
20260906032122 77 192 0.0 0.0 0.00 0.00 0.00 88 1013.2
20260906031618 77 192 0.0 0.0 0.00 0.00 0.00 88 1013.1
20260906031113 77 191 0.0 0.0 0.00 0.00 0.00 87 1013.2
20260906030612 77 209 0.0 0.0 0.00 0.00 0.00 87 1013.5
20260906030108 77 172 0.0 0.0 0.00 0.00 0.00 88 1013.5
20260906025607 77 174 0.0 0.0 0.00 0.00 0.00 87 1013.3
20260906025106 77 174 0.0 0.0 0.00 0.00 0.00 87 1013.3
20260906024601 77 172 0.0 0.0 0.00 0.00 0.00 87 1013.5
20260906024055 77 176 0.0 0.0 0.00 0.00 0.00 87 1013.2
20260906023552 77 175 0.0 0.0 0.00 0.00 0.00 87 1013.4
20260906023046 77 230 0.0 0.0 0.00 0.00 0.00 87 1013.5
20260906022541 77 231 0.0 0.0 0.00 0.00 0.00 87 1013.6
20260906022037 78 231 0.0 0.0 0.00 0.00 0.00 86 1013.4
20260906021532 78 227 0.0 0.0 0.00 0.00 0.00 86 1013.6
20260906021031 78 219 0.0 0.0 0.00 0.00 0.00 86 1013.7
20260906020531 78 219 0.0 0.0 0.00 0.00 0.00 86 1013.5
20260906020031 78 188 0.0 0.0 0.00 0.00 0.00 86 1013.7
20260906015529 78 235 0.0 0.0 0.00 0.00 0.00 86 1013.7
20260906015024 78 237 0.0 0.0 0.00 0.00 0.00 86 1013.5
20260906014519 78 235 0.0 0.0 0.00 0.00 0.00 85 1013.6
20260906014015 78 204 0.0 0.0 0.00 0.00 0.00 84 1013.4
20260906013510 78 178 0.0 0.0 0.00 0.00 0.00 84 1012.9
20260906013006 78 250 0.0 0.0 0.00 0.00 0.00 84 1012.8
20260906012501 79 241 0.0 0.0 0.00 0.00 0.00 83 1012.7
20260906012000 79 217 0.0 0.0 0.00 0.00 0.00 83 1012.5
20260906011456 79 228 0.0 0.0 0.00 0.00 0.00 82 1012.4
20260906010950 79 249 0.0 0.0 0.00 0.00 0.00 82 1012.3
20260906010446 79 251 0.0 0.0 0.00 0.00 0.00 82 1012.3
20260906005943 80 220 0.0 0.0 0.00 0.00 0.00 81 1012.4
20260906005442 80 194 0.0 0.0 0.00 0.00 0.00 80 1012.0
20260906004940 80 178 0.0 0.0 0.00 0.00 0.00 80 1011.9
20260906004434 80 201 0.0 0.0 0.00 0.00 0.00 80 1011.8
20260906003930 80 177 0.0 0.0 0.00 0.00 0.00 80 1011.7
20260906003425 81 208 0.0 0.0 0.00 0.00 0.00 79 1011.7
20260906002920 81 182 0.0 0.0 0.00 0.00 0.00 78 1011.7
20260906002420 81 191 0.0 0.0 0.00 0.00 0.00 78 1011.4
20260906001915 81 191 0.0 0.0 0.00 0.00 0.00 77 1011.8
20260906001411 81 201 0.0 0.0 0.00 0.00 0.00 77 1011.8
20260906000910 82 233 0.0 0.0 0.00 0.00 0.00 76 1011.9
20260906000406 82 214 0.0 0.0 0.00 0.00 0.00 75 1012.1
20260905235855 82 183 0.0 0.0 0.00 0.00 0.00 74 1012.2
20260905235349 82 231 0.0 0.0 0.00 0.00 0.00 74 1011.9
20260905234844 82 223 0.0 0.0 0.00 0.00 0.00 74 1012.2
20260905234339 82 235 0.0 0.0 0.00 0.00 0.00 74 1012.2
20260905233835 82 80 0.0 0.0 0.00 0.00 0.00 75 1012.2
20260905233329 82 185 0.0 0.0 0.00 0.00 0.00 76 1012.6
20260905232828 82 119 0.0 0.0 0.00 0.00 0.00 77 1012.0
20260905232325 82 212 0.0 0.0 0.00 0.00 0.00 79 1011.9
20260905231820 82 215 0.0 0.0 0.00 0.00 0.00 79 1012.1
20260905231315 82 210 0.0 0.0 0.00 0.00 0.00 78 1011.8
20260905230812 83 198 0.0 0.0 0.00 0.00 0.00 77 1011.8
20260905230309 84 228 0.0 0.0 0.00 0.00 0.00 74 1011.6
20260905225809 84 172 0.0 0.0 0.00 0.00 0.00 73 1011.9
20260905225306 84 275 0.0 0.0 0.00 0.00 0.00 71 1011.7
20260905224804 86 26 0.0 0.0 0.00 0.00 0.00 69 1012.0
20260905224259 88 308 0.0 0.0 0.00 0.00 0.00 64 1012.2
20260905223755 89 11 0.0 0.0 0.00 0.00 0.00 61 1012.1
20260905223252 92 128 0.0 0.0 0.00 0.00 0.00 58 1011.8
20260905222747 95 194 0.0 0.0 0.00 0.00 0.00 61 1011.5
20260905222246 95 253 0.0 0.0 0.00 0.00 0.00 60 1011.1
20260905221742 96 264 0.0 0.0 0.00 0.00 0.00 57 1010.7
20260905221239 96 235 0.0 0.0 0.00 0.00 0.00 59 1010.9
20260905220734 96 229 0.0 0.0 0.00 0.00 0.00 59 1010.7
20260905220230 96 247 0.0 0.0 0.00 0.00 0.00 60 1010.8
20260905215730 96 220 0.0 0.0 0.00 0.00 0.00 60 1010.7
20260905215226 96 242 0.0 0.0 0.00 0.00 0.00 60 1010.5
20260905214721 96 242 0.0 0.0 0.00 0.00 0.00 58 1010.9
20260905214217 97 239 0.0 0.0 0.00 0.00 0.00 59 1010.8
20260905213712 98 232 0.0 0.0 0.00 0.00 0.00 57 1010.3
20260905213208 99 240 0.0 0.0 0.00 0.00 0.00 53 1010.6
20260905212703 100 227 0.0 0.0 0.00 0.00 0.00 51 1010.5
20260905212202 100 234 0.0 0.0 0.00 0.00 0.00 50 1010.5
20260905211656 100 240 0.0 0.0 0.00 0.00 0.00 51 1010.7
20260905211152 100 56 0.0 0.0 0.00 0.00 0.00 52 1010.6
20260905210649 100 218 0.0 0.0 0.00 0.00 0.00 51 1010.8
20260905210148 100 236 0.0 0.0 0.00 0.00 0.00 52 1010.6
20260905205647 100 224 0.0 0.0 0.00 0.00 0.00 50 1010.9
20260905205147 101 245 0.0 0.0 0.00 0.00 0.00 50 1011.0
20260905204647 100 256 0.0 0.0 0.00 0.00 0.00 51 1010.8
20260905204142 101 247 0.0 0.0 0.00 0.00 0.00 52 1010.6
20260905203637 100 234 0.0 0.0 0.00 0.00 0.00 52 1010.6
20260905203132 102 260 0.0 0.0 0.00 0.00 0.00 50 1010.7
20260905202628 101 290 0.0 0.0 0.00 0.00 0.00 49 1010.6
20260905202123 101 233 0.0 0.0 0.00 0.00 0.00 51 1010.7
20260905201619 101 237 0.0 0.0 0.00 0.00 0.00 49 1010.8
20260905201118 101 225 0.0 0.0 0.00 0.00 0.00 51 1011.1
20260905200614 102 187 0.0 0.0 0.00 0.00 0.00 49 1010.9
20260905200109 103 222 0.0 0.0 0.00 0.00 0.00 49 1011.1
20260905195607 104 232 0.0 0.0 0.00 0.00 0.00 48 1010.9
20260905195103 102 201 0.0 0.0 0.00 0.00 0.00 50 1011.0
20260905194603 102 209 0.0 0.0 0.00 0.00 0.00 53 1011.2
20260905194102 101 233 0.0 0.0 0.00 0.00 0.00 51 1011.1
20260905193557 101 259 0.0 0.0 0.00 0.00 0.00 51 1011.0
20260905193052 102 223 0.0 0.0 0.00 0.00 0.00 48 1011.0
20260905192547 101 220 0.0 0.0 0.00 0.00 0.00 51 1011.2
20260905192044 102 215 0.0 0.0 0.00 0.00 0.00 50 1011.4
20260905191542 102 184 0.0 0.0 0.00 0.00 0.00 49 1011.7
20260905191036 102 241 0.0 0.0 0.00 0.00 0.00 51 1011.5
20260905190534 102 204 0.0 0.0 0.00 0.00 0.00 50 1011.6
20260905190034 102 236 0.0 0.0 0.00 0.00 0.00 50 1011.7
20260905185533 102 231 0.0 0.0 0.00 0.00 0.00 53 1011.8
20260905185033 102 232 0.0 0.0 0.00 0.00 0.00 50 1012.1
20260905184533 102 240 0.0 0.0 0.00 0.00 0.00 49 1012.1
20260905184031 100 157 0.0 0.0 0.00 0.00 0.00 51 1012.2
20260905183526 101 21 0.0 0.0 0.00 0.00 0.00 50 1012.2
20260905183021 100 213 0.0 0.0 0.00 0.00 0.00 51 1012.2
20260905182520 102 235 0.0 0.0 0.00 0.00 0.00 49 1012.5
20260905182015 103 181 0.0 0.0 0.00 0.00 0.00 48 1012.4
20260905181510 102 125 0.0 0.0 0.00 0.00 0.00 49 1012.5
20260905181009 101 158 0.0 0.0 0.00 0.00 0.00 51 1012.6
20260905180504 100 214 0.0 0.0 0.00 0.00 0.00 52 1012.6
20260905175959 100 228 0.0 0.0 0.00 0.00 0.00 52 1012.7
20260905175458 99 230 0.0 0.0 0.00 0.00 0.00 55 1012.9
20260905174954 100 273 0.0 0.0 0.00 0.00 0.00 54 1012.9
20260905174449 98 236 0.0 0.0 0.00 0.00 0.00 54 1013.0
20260905173945 98 205 0.0 0.0 0.00 0.00 0.00 54 1013.0
20260905173441 100 173 0.0 0.0 0.00 0.00 0.00 53 1013.1
20260905172936 98 203 0.0 0.0 0.00 0.00 0.00 54 1013.1
20260905172434 98 309 0.0 0.0 0.00 0.00 0.00 55 1013.3
20260905171930 98 49 0.0 0.0 0.00 0.00 0.00 53 1013.3
20260905171427 97 210 0.0 0.0 0.00 0.00 0.00 56 1013.5
20260905170923 98 249 0.0 0.0 0.00 0.00 0.00 55 1013.3
20260905170419 98 234 0.0 0.0 0.00 0.00 0.00 55 1013.5
20260905165918 97 230 0.0 0.0 0.00 0.00 0.00 57 1013.3
20260905165413 96 253 0.0 0.0 0.00 0.00 0.00 57 1013.7
20260905164909 96 222 0.0 0.0 0.00 0.00 0.00 57 1013.8
20260905164403 97 238 0.0 0.0 0.00 0.00 0.00 56 1013.8
20260905163858 96 233 0.0 0.0 0.00 0.00 0.00 59 1014.1
20260905163355 97 303 0.0 0.0 0.00 0.00 0.00 59 1013.9
20260905162850 97 232 0.0 0.0 0.00 0.00 0.00 59 1014.1
20260905162350 96 164 0.0 0.0 0.00 0.00 0.00 58 1014.4
20260905161845 96 206 0.0 0.0 0.00 0.00 0.00 62 1014.4
20260905161344 95 216 0.0 0.0 0.00 0.00 0.00 61 1014.6
20260905160843 94 205 0.0 0.0 0.00 0.00 0.00 63 1014.7
20260905160337 94 134 0.0 0.0 0.00 0.00 0.00 64 1014.7
20260905155831 94 249 0.0 0.0 0.00 0.00 0.00 67 1014.8
20260905155330 93 181 0.0 0.0 0.00 0.00 0.00 65 1015.0
20260905154825 94 207 0.0 0.0 0.00 0.00 0.00 66 1014.8
20260905154320 94 211 0.0 0.0 0.00 0.00 0.00 66 1014.9
20260905153816 94 222 0.0 0.0 0.00 0.00 0.00 66 1014.8
20260905153312 92 207 0.0 0.0 0.00 0.00 0.00 66 1014.9
20260905152812 91 214 0.0 0.0 0.00 0.00 0.00 70 1015.2
20260905152311 91 219 0.0 0.0 0.00 0.00 0.00 71 1014.9
20260905151806 91 218 0.0 0.0 0.00 0.00 0.00 71 1014.9
20260905151302 91 236 0.0 0.0 0.00 0.00 0.00 72 1015.0
20260905150802 91 186 0.0 0.0 0.00 0.00 0.00 70 1015.2
20260905150301 90 121 0.0 0.0 0.00 0.00 0.00 73 1015.1
20260905145758 90 195 0.0 0.0 0.00 0.00 0.00 73 1015.5
20260905145253 88 139 0.0 0.0 0.00 0.00 0.00 75 1015.5
20260905144752 88 120 0.0 0.0 0.00 0.00 0.00 76 1015.6
20260905144248 87 230 0.0 0.0 0.00 0.00 0.00 79 1015.5
20260905143746 87 165 0.0 0.0 0.00 0.00 0.00 78 1015.4
20260905143241 88 197 0.0 0.0 0.00 0.00 0.00 77 1015.4
20260905142739 86 173 0.0 0.0 0.00 0.00 0.00 81 1015.5
20260905142234 84 203 0.0 0.0 0.00 0.00 0.00 83 1015.6
20260905141730 85 157 0.0 0.0 0.00 0.00 0.00 82 1015.6
20260905141226 84 183 0.0 0.0 0.00 0.00 0.00 84 1015.8
20260905140721 84 255 0.0 0.0 0.00 0.00 0.00 84 1015.7
20260905140215 84 192 0.0 0.0 0.00 0.00 0.00 87 1015.9
20260905135709 83 161 0.0 0.0 0.00 0.00 0.00 86 1015.8
20260905135205 82 348 0.0 0.0 0.00 0.00 0.00 90 1016.0
20260905134704 82 206 0.0 0.0 0.00 0.00 0.00 90 1015.9
20260905134204 81 189 0.0 0.0 0.00 0.00 0.00 92 1015.8
20260905133659 79 220 0.0 0.0 0.00 0.00 0.00 95 1015.8
20260905133154 79 220 0.0 0.0 0.00 0.00 0.00 95 1015.8
20260905132653 79 198 0.0 0.0 0.00 0.00 0.00 95 1015.8
20260905132148 78 227 0.0 0.0 0.00 0.00 0.00 98 1016.0
20260905131643 78 247 0.0 0.0 0.00 0.00 0.00 98 1016.0
20260905131138 78 225 0.0 0.0 0.00 0.00 0.00 99 1016.0
20260905130633 77 257 0.0 0.0 0.00 0.00 0.00 99 1016.1
20260905130133 77 228 0.0 0.0 0.00 0.00 0.00 99 1016.0
20260905125626 77 251 0.0 0.0 0.00 0.00 0.00 99 1016.2
20260905125123 77 209 0.0 0.0 0.00 0.00 0.00 99 1015.9
20260905124619 76 184 0.0 0.0 0.00 0.00 0.00 99 1016.2
20260905124115 76 202 0.0 0.0 0.00 0.00 0.00 99 1015.9
20260905123610 76 211 0.0 0.0 0.00 0.00 0.00 99 1015.8
20260905123107 76 194 0.0 0.0 0.00 0.00 0.00 99 1015.8
20260905122607 76 141 0.0 0.0 0.00 0.00 0.00 99 1015.8
20260905122107 76 205 0.0 0.0 0.00 0.00 0.00 99 1015.9
20260905121601 76 151 0.0 0.0 0.00 0.00 0.00 99 1015.7
20260905121057 75 190 0.0 0.0 0.00 0.00 0.00 99 1015.7
20260905120555 75 233 0.0 0.0 0.00 0.00 0.00 99 1015.7
20260905120051 75 208 0.0 0.0 0.00 0.00 0.00 99 1015.6
20260905115550 75 218 0.0 0.0 0.00 0.00 0.00 99 1015.6
20260905115045 75 218 0.0 0.0 0.00 0.00 0.00 99 1015.4
20260905114544 75 218 0.0 0.0 0.00 0.00 0.00 99 1015.4
20260905114043 75 218 0.0 0.0 0.00 0.00 0.00 99 1015.6
20260905113538 75 218 0.0 0.0 0.00 0.00 0.00 99 1015.5
20260905113034 75 218 0.0 0.0 0.00 0.00 0.00 99 1015.6
20260905112529 74 218 0.0 0.0 0.00 0.00 0.00 99 1015.4
20260905112024 74 218 0.0 0.0 0.00 0.00 0.00 99 1015.5
20260905111519 74 218 0.0 0.0 0.00 0.00 0.00 99 1015.1
20260905111018 74 218 0.0 0.0 0.00 0.00 0.00 99 1015.6
20260905110517 74 218 0.0 0.0 0.00 0.00 0.00 99 1015.2
20260905110013 74 218 0.0 0.0 0.00 0.00 0.00 99 1015.2
20260905105507 74 219 0.0 0.0 0.00 0.00 0.00 99 1015.1
20260905105001 74 218 0.0 0.0 0.00 0.00 0.00 99 1015.1
20260905104457 74 218 0.0 0.0 0.00 0.00 0.00 99 1015.1
20260905103957 74 218 0.0 0.0 0.00 0.00 0.00 99 1015.0
20260905103452 74 219 0.0 0.0 0.00 0.00 0.00 99 1015.2
20260905102948 74 218 0.0 0.0 0.00 0.00 0.00 99 1014.9
20260905102444 74 218 0.0 0.0 0.00 0.00 0.00 99 1015.1
20260905101939 74 218 0.0 0.0 0.00 0.00 0.00 99 1015.0
20260905101437 74 218 0.0 0.0 0.00 0.00 0.00 99 1015.0
20260905100932 74 218 0.0 0.0 0.00 0.00 0.00 99 1014.9
20260905100428 73 218 0.0 0.0 0.00 0.00 0.00 99 1014.9
20260905095927 74 219 0.0 0.0 0.00 0.00 0.00 99 1014.8
20260905095422 74 219 0.0 0.0 0.00 0.00 0.00 99 1014.9
20260905094921 74 218 0.0 0.0 0.00 0.00 0.00 99 1014.9
20260905094418 74 218 0.0 0.0 0.00 0.00 0.00 99 1014.9
20260905093916 74 218 0.0 0.0 0.00 0.00 0.00 99 1014.6
20260905093412 74 218 0.0 0.0 0.00 0.00 0.00 99 1014.9
20260905092907 74 218 0.0 0.0 0.00 0.00 0.00 99 1014.8
20260905092402 74 219 0.0 0.0 0.00 0.00 0.00 99 1014.6
20260905091857 74 227 0.0 0.0 0.00 0.00 0.00 99 1014.6
20260905091357 74 227 0.0 0.0 0.00 0.00 0.00 99 1014.7